Location: Unspecified
(0.0000°N, 0.0000°E)
Time: 10:09:57
(UTC+00:00)

Courier 1B Rocket - Pass Details

Date: 23 May 2026
Orbit: 920 x 1201 km, 28.2° (Epoch: 9 June)

Event Time Altitude Azimuth Distance (km) Brightness Sun altitude
Rises 10:54:56 0° 318° (NW) 3,558 8.0 64.4°
Reaches altitude 10° 10:57:48 10° 329° (NNW) 2,637 7.6 64.8°
Maximum altitude 11:03:20 31° 29° (NNE) 1,626 7.3 65.6°
Drops below altitude 10° 11:09:08 10° 89° (E) 2,781 7.7 66.3°
Sets 11:12:14 0° 99° (E) 3,782 8.2 66.7°
